Other Public Products
Issued by NWS Charleston, SC

Home | Current Version | Previous Version | Text Only | Print | Product List | Glossary On
Versions: 1 2 3 4 5 6 7 8 9 10 11 12 13 14 15 16 17 18 19 20 21 22 23 24 25 26 27 28 29 30 31 32 33 34 35 36 37 38 39 40 41 42 43 44 45 46 47 48 49 50
000
FPUS82 KCHS 251512
OPUCHS

TEST...KCHS/KSAV Gateway Observations...TEST
National Weather Service Charleston SC
1100 AM EDT THU MAY 25 2017

NOTE: "fair" indicates few or no clouds below 12,000 feet with no
significant weather and/or obstructions to visibility.

SCZ050-WAZ558-NCZ071-TXZ119-213-PAZ071-DCZ001-FLZ074-172-MI076-
NYZ176-178-MAZ016-IL014-TNZ027-NJZ106-GAZ044-MD014-251600-

...Gateway Observations for Charleston International...

CITY           SKY/WX    TMP DP  RH WIND       PRES   REMARKS
Chas Airport   MOSUNNY   73  54  51 W15       29.70S
Seattle        MOSUNNY   51  47  86 CALM      29.92S
Charlotte      PTSUNNY   66  57  72 SW12      29.62R
Dallas DFW     MOSUNNY   78  53  41 S15G23    29.69F
Dallas Love    MOSUNNY   76  53  44 S10G20    29.71F
Philladelphia  LGT RAIN  58  56  93 E14       29.55F
Wash National  CLOUDY    65  63  93 SW6       29.51R
Baltimore      DRIZZLE   62  62 100 NE3       29.48R FOG
Miami          LGT RAIN  85  76  74 SW14G21   29.91R HX  94
Detroit        RAIN      59  58  96 N6        29.48R FOG
Newark         LGT RAIN  57  56  96 NE13      29.62F FOG
Laguardia      LGT RAIN  58  56  93 E13       29.64R FOG
J F K          LGT RAIN  57  57 100 E20G28    29.64F FOG
Boston Logan   LGT RAIN  53  51  93 E22G28    29.83F
Ft. Lauderdale CLOUDY    85  75  72 SW14      29.88R HX  93
Chicago O`Hare CLOUDY    59  51  75 N12G21    29.62R
Chicago Midway CLOUDY    58  52  80 N14       29.61S
Houston Bush   SUNNY     80  60  50 S14G25    29.83R
Houston Hobby  SUNNY     79  63  57 S12G23    29.84R
Nashville      PTSUNNY   64  54  69 W15       29.72S
Atlanta        PTSUNNY   63  51  65 W15G23    29.77R

$$

GAZ044-118-TXZ119-213-NCZ071-DCZ001-MDZ014-506-PAZ021-071-NJZ106-
NYZ176-178-MAZ106-OHZ011-021-055-MIZ076-KYZ091-ILZ014-INZ047-
MNZ060-ONZ431-251600-

...Gateway Observations for Savannah International...

CITY           SKY/WX    TMP DP  RH WIND       PRES   REMARKS
Savannah Arpt  PTSUNNY   76  54  46 W21       29.75S
Atlanta        PTSUNNY   63  51  65 W15G23    29.77R
Charlotte      PTSUNNY   66  57  72 SW12      29.62R
Dallas DFW     MOSUNNY   78  53  41 S15G23    29.69F
Houston Bush   SUNNY     80  60  50 S14G25    29.83R
Wash National  CLOUDY    65  63  93 SW6       29.51R
Wash Dulles    CLOUDY    62  57  83 W6        29.52R
Baltimore      DRIZZLE   62  62 100 NE3       29.48R FOG
Philadelphia   LGT RAIN  58  56  93 E14       29.55F
Newark         LGT RAIN  57  56  96 NE13      29.62F FOG
Laguardia      LGT RAIN  58  56  93 E13       29.64R FOG
J F K          LGT RAIN  57  57 100 E20G28    29.64F FOG
Boston         LGT RAIN  53  51  93 E22G28    29.83F
Pittsburg      LGT RAIN  58  58 100 VRB3      29.47F
Akron          CLOUDY    60  56  86 E6        29.46F FOG
Cleveland      LGT RAIN  62  58  86 SE5       29.48S
Cincinnati     LGT RAIN  60  58  92 NW9       29.45R
Columbus       CLOUDY    59  57  94 S9        29.45S
Detroit        RAIN      59  58  96 N6        29.48R FOG
Chicago O`Hare CLOUDY    59  51  75 N12G21    29.62R
Minneapolis    MOSUNNY   62  50  64 SE12      29.70F
Indianapolis   DRIZZLE   55  54  96 NW20      29.53R FOG
Toronto Canada LGT RAIN  54  54 100 E16G24    29.56F FOG

$$




USA.gov is the U.S. government's official web portal to all federal, state and local government web resources and services.